Temp
20 21 22 22 22 22 22 22 22 22 22 21 21 22 22 21 20 20 19 19 19 19 19 19 19 19 19 19 19 19 20 20 20 20 20 20 20 20 19 19 18 18 19 19 19 19 19 19 18 18 18 18 18 18 18 18 18 18 18 18 18 18 18 18 18 18 18 18 17 17 17 17 17 17 17 16 16 16 16 16 16 16 16 16 16
20 21 21 22 22 22 22 22 22 22 22 21 21 21 22 21 20 20 20 20 20 20 20 20 20 20 19 19 19 20 20 20 20 20 19 19 19 19 19 19 18 18 18 19 19 18 18 18 18 18 18 18 18 18 18 18 18 18 17 17 17 17 17 18 18 18 17 17 17 17 17 17 17 17 16 16 16 16 16 16 16 16 16 16 16
20 20 21 22 22 22 21 22 22 22 21 21 21 21 21 21 20 20 20 20 20 20 21 21 21 20 20 20 20 20 20 19 19 19 19 19 19 19 19 18 18 18 18 18 18 18 18 18 18 18 18 18 18 18 18 18 17 17 18 18 17 17 17 17 17 17 17 17 17 17 17 17 17 17 16 16 16 16 16 16 16 16 16 16 16
21 21 22 22 22 22 21 21 22 22 21 21 21 21 21 21 20 20 20 20 20 20 20 20 20 20 20 20 20 20 19 19 19 19 19 19 19 19 19 19 18 18 18 18 18 18 18 18 18 18 18 18 18 17 18 17 17 17 17 17 17 17 17 17 17 17 17 17 17 17 17 17 17 17 16 16 16 16 16 16 16 16 16 16 16
21 21 21 22 21 21 21 21 22 22 21 21 21 21 21 21 21 20 20 20 20 20 20 20 20 20 20 20 19 19 19 19 19 19 19 19 19 19 19 19 19 18 18 18 18 18 18 18 18 18 18 18 18 17 17 17 17 17 17 17 17 17 17 17 17 18 17 17 17 17 17 17 17 17 16 16 16 16 16 16 16 16 16 16 16
21 21 21 22 21 21 21 21 22 22 21 21 21 21 21 21 21 20 20 20 20 20 20 20 20 20 20 20 19 19 19 19 19 19 19 19 19 19 19 19 19 18 18 18 18 18 18 18 18 18 18 17 17 17 17 17 17 17 17 17 17 17 17 18 18 18 17 17 17 17 17 17 17 16 16 16 16 16 16 16 16 16 16 16 16
21 21 21 21 21 21 21 21 22 22 21 21 21 20 21 21 21 20 20 20 20 20 20 20 20 20 20 20 20 19 19 19 19 19 19 19 19 19 19 19 19 18 18 18 18 18 18 18 18 18 18 17 17 17 17 17 17 17 17 17 17 17 17 17 18 18 17 17 17 17 17 17 17 16 16 16 16 16 16 16 16 16 16 16 16
21 21 21 21 21 21 21 21 22 22 21 21 21 20 20 20 21 20 20 20 20 20 20 20 20 20 20 20 20 19 19 19 19 19 19 19 19 19 19 19 19 19 18 18 18 18 18 18 18 18 18 18 17 17 17 17 17 17 17 17 17 17 17 17 18 18 17 17 17 17 17 17 17 17 16 16 16 16 16 16 16 16 16 16 16
20 20 21 21 21 21 21 21 21 22 21 21 21 20 20 20 20 20 20 20 20 20 20 20 20 20 20 20 20 20 20 19 19 19 19 19 19 19 19 19 19 19 19 18 19 19 18 18 18 18 18 18 18 17 17 17 17 17 17 17 17 17 17 17 17 17 17 17 17 17 17 17 17 17 16 16 16 16 16 16 16 16 15 16 16
20 20 20 21 21 21 21 21 21 21 21 21 21 21 20 20 20 20 20 20 20 20 20 20 20 20 20 20 20 20 20 19 19 19 19 19 19 18 19 19 19 19 18 18 19 19 18 18 18 18 18 17 17 17 17 17 17 17 17 17 17 17 17 17 17 17 17 17 17 17 17 17 17 16 16 16 16 16 16 16 16 16 16 16 16
20 20 20 20 20 20 20 20 21 21 21 21 21 21 21 20 20 20 20 20 20 20 20 20 20 20 20 20 20 20 19 19 19 19 19 19 19 19 19 19 19 18 18 18 19 19 18 18 18 18 18 17 17 17 17 17 17 17 17 17 18 17 17 17 17 17 17 17 17 17 17 17 17 16 16 16 16 16 16 16 16 16 16 15 15
19 20 20 20 20 20 20 20 20 21 21 21 21 21 21 20 20 20 20 19 20 20 20 20 20 20 20 20 20 20 19 19 19 19 19 19 19 19 19 19 18 18 18 18 18 18 18 18 18 18 18 17 17 17 17 17 17 17 17 18 18 18 18 18 17 17 17 17 17 16 16 16 16 16 16 16 16 16 16 16 16 16 16 15 15
19 19 20 20 19 20 20 20 20 21 21 21 21 21 20 20 20 20 19 19 19 19 19 19 20 20 20 20 20 20 20 20 19 19 19 19 19 19 19 19 18 18 18 18 18 18 18 18 18 17 17 17 17 17 17 17 17 17 17 18 18 18 18 18 18 18 17 17 17 16 16 16 16 16 16 16 16 16 16 16 16 16 16 15 15
19 19 19 19 19 20 20 20 20 20 21 21 21 20 20 20 20 20 20 19 19 19 19 19 20 20 20 20 20 20 20 20 20 19 19 19 19 19 18 18 18 18 18 18 18 17 18 18 17 17 17 17 17 17 17 17 17 17 18 18 18 19 19 18 18 18 18 17 17 16 16 16 16 16 16 16 16 16 16 16 16 16 15 15 15
19 19 19 19 19 19 20 20 19 19 20 21 21 21 20 20 20 20 20 20 19 19 19 19 20 20 20 20 20 20 20 20 20 19 19 19 19 18 18 18 18 18 18 18 18 17 18 18 17 17 17 17 17 18 18 18 18 18 18 18 19 19 19 19 19 18 18 18 17 17 17 16 16 16 16 16 16 16 16 16 16 15 15 15 15
19 19 20 20 20 20 20 20 20 19 19 20 21 21 20 20 20 20 20 20 19 19 19 19 20 20 20 20 20 20 20 19 19 19 19 19 19 18 18 18 18 18 18 18 18 18 18 17 17 17 17 17 17 18 18 18 18 18 18 18 19 19 19 19 19 19 18 18 18 17 17 17 16 16 16 16 16 16 15 15 15 15 15 15 15
20 20 20 21 20 20 20 20 20 20 19 20 20 20 20 20 20 20 20 20 19 19 19 20 20 20 20 20 20 20 19 19 19 19 19 19 19 19 18 18 18 18 18 18 18 18 18 17 17 17 17 17 17 17 18 18 18 18 18 18 19 19 19 19 19 19 18 18 18 18 17 17 16 16 16 16 16 16 15 15 15 15 15 15 15
20 21 21 21 20 21 21 21 21 20 20 20 20 20 20 20 20 20 20 20 19 19 19 20 20 20 20 19 19 19 19 19 19 19 19 19 19 19 19 19 18 18 18 18 18 18 18 17 17 17 17 17 17 17 18 18 18 18 18 18 19 19 19 19 19 19 19 18 18 18 17 17 16 16 16 16 16 15 15 15 15 15 15 15 15
20 20 20 20 20 20 20 20 20 20 20 20 19 19 20 20 20 20 20 20 19 19 19 20 20 19 19 19 19 19 19 19 19 19 19 19 19 19 19 18 18 18 18 18 18 18 18 17 17 17 17 17 17 17 17 18 18 18 18 18 19 19 19 18 19 19 19 19 18 18 17 17 17 16 16 16 16 15 15 15 15 15 15 15 15
19 19 20 20 19 19 19 19 19 19 19 19 19 19 19 19 20 20 20 19 19 19 19 19 19 19 19 19 19 19 18 18 18 18 18 18 19 18 18 18 18 18 18 18 18 18 18 17 17 17 17 17 17 17 17 17 18 18 18 18 19 19 19 18 18 18 19 19 18 18 17 17 17 16 16 16 16 15 15 15 15 15 15 15 15
18 18 19 19 19 19 19 19 19 19 19 18 19 19 19 19 19 19 19 19 19 19 19 19 19 19 19 18 18 18 18 18 18 18 18 18 18 18 18 18 18 18 18 18 18 18 18 17 17 17 17 17 17 17 17 17 18 18 18 18 19 19 19 18 18 18 18 18 18 18 17 17 16 16 16 16 16 15 15 15 15 15 15 15 15
17 18 18 18 19 19 19 19 19 19 19 19 19 19 19 19 19 19 19 19 19 19 19 19 19 18 18 18 18 18 18 18 18 18 18 18 18 18 18 18 18 18 18 18 17 18 18 17 17 17 17 17 17 17 17 17 18 18 18 18 19 19 19 19 18 18 18 18 18 18 17 17 16 16 16 16 15 15 15 15 15 15 15 15 15
17 17 18 18 19 19 19 19 19 19 19 19 19 19 19 19 19 19 19 19 19 19 19 18 18 18 18 18 18 18 18 18 18 18 18 18 18 18 18 18 18 18 18 18 17 17 17 17 17 17 17 17 17 17 17 17 18 18 18 18 19 19 19 19 18 18 19 18 18 18 18 17 16 16 16 16 15 15 15 15 15 15 15 15 15
17 17 18 18 19 19 19 19 19 19 19 19 19 19 18 19 19 18 18 18 18 19 19 18 18 18 18 18 18 17 17 17 17 17 17 18 17 17 18 18 18 18 18 18 18 17 17 17 17 17 17 17 17 17 17 18 18 18 18 18 19 19 19 19 19 18 19 19 19 18 18 17 16 16 16 16 15 15 15 15 15 15 15 15 15
17 17 18 18 19 19 19 19 19 18 19 19 18 18 18 18 18 18 18 18 19 18 18 18 18 18 18 18 18 17 17 17 17 17 17 18 17 17 17 18 18 18 18 18 18 18 18 17 17 17 17 17 18 18 18 18 18 18 18 18 18 19 19 19 19 19 19 19 19 18 18 17 17 16 16 16 15 15 15 15 15 15 15 15 15
17 17 17 18 19 19 19 19 19 18 18 18 18 18 18 18 18 18 18 18 19 18 18 18 18 18 18 18 18 18 17 17 18 17 17 17 17 17 18 18 18 18 18 18 18 18 18 17 17 17 17 17 18 18 18 18 18 18 18 18 18 19 19 19 19 18 19 19 19 19 18 17 17 16 16 16 15 15 15 15 15 15 15 15 14
17 17 17 18 18 19 19 18 18 17 18 18 18 18 18 18 18 18 18 19 19 18 18 18 18 18 18 18 18 18 18 18 18 18 17 17 17 17 18 18 18 18 18 18 18 17 17 17 17 17 17 17 18 18 18 18 18 18 18 18 18 18 19 19 18 18 18 19 19 18 18 17 17 16 16 16 15 15 15 15 15 15 14 14 15
17 17 17 17 17 17 18 18 17 17 17 18 18 18 18 18 18 19 19 19 19 18 18 18 18 18 18 18 18 18 18 18 18 18 18 17 17 18 18 18 18 18 17 17 17 17 17 17 17 17 17 17 17 18 18 18 18 18 19 19 19 19 19 19 19 18 18 18 18 18 18 17 17 16 16 16 15 15 15 16 15 15 14 14 14
16 16 17 17 17 17 17 17 17 17 18 19 19 18 19 19 19 19 19 19 19 19 18 18 19 18 18 18 18 18 18 18 18 18 18 17 17 18 18 18 17 17 17 17 17 17 17 17 17 17 17 17 17 18 17 17 18 18 19 19 19 19 19 19 19 19 18 18 18 18 18 18 17 16 16 15 15 15 15 15 15 15 15 14 14
16 16 16 16 17 17 17 17 18 18 19 19 19 19 19 19 19 19 19 19 19 19 18 18 18 18 19 18 18 18 18 18 18 18 18 17 17 17 18 17 17 17 17 17 17 17 17 17 17 17 17 17 17 17 18 17 18 18 19 19 19 19 19 19 19 19 19 19 18 18 18 18 17 16 16 16 15 15 15 15 15 15 15 14 14
16 16 16 16 17 18 18 18 18 19 19 19 19 19 19 19 19 19 19 19 19 19 18 18 18 18 18 18 17 18 18 18 18 17 17 17 17 17 17 17 17 17 17 17 17 17 17 17 17 17 17 17 18 18 18 18 18 18 18 19 19 19 19 19 19 19 19 19 18 18 18 18 17 17 16 16 16 15 15 15 15 15 15 15 14
16 16 16 17 17 18 18 18 18 19 19 19 19 19 19 19 19 19 19 19 19 18 18 18 17 18 18 17 17 18 18 17 17 17 17 17 17 17 17 17 17 17 17 17 17 17 17 17 17 17 18 18 18 18 18 18 18 18 18 19 19 19 19 19 19 19 19 19 18 18 18 18 18 17 16 16 16 16 15 15 15 15 15 15 14
16 16 17 17 18 18 18 18 18 18 19 19 19 19 19 19 19 19 19 18 18 18 18 17 17 18 17 17 17 17 17 17 17 17 17 17 17 17 16 16 17 17 17 17 17 17 17 18 18 18 18 18 18 18 18 18 18 18 18 19 19 19 19 19 19 19 19 19 18 18 18 18 18 18 17 16 16 16 15 15 15 15 15 15 15
16 17 17 18 18 18 18 17 17 18 19 19 19 19 19 18 18 18 18 18 18 18 17 17 17 17 17 16 17 17 17 17 17 17 18 18 17 16 16 16 16 17 17 17 17 17 18 18 18 18 18 18 18 18 18 18 18 18 18 19 19 19 19 19 19 19 19 19 18 18 18 18 18 18 18 17 17 16 16 15 15 15 15 15 15
17 17 18 18 18 18 18 18 18 18 18 18 18 18 18 18 18 18 18 18 18 17 17 17 17 17 17 16 17 17 17 17 17 17 18 18 17 17 17 17 17 17 17 17 17 18 18 18 18 18 18 18 18 18 18 18 18 18 18 18 19 19 19 19 19 19 19 18 18 18 18 18 18 18 18 18 17 17 16 16 15 15 15 15 15
18 18 18 18 18 18 18 18 18 18 18 18 18 18 18 17 17 17 17 17 17 17 17 17 16 16 16 16 16 17 17 17 17 17 17 17 17 17 16 16 17 17 17 17 18 18 18 18 18 18 18 18 18 18 18 18 17 18 18 18 18 19 19 19 19 19 19 18 18 18 18 18 18 18 18 18 18 17 17 17 16 15 15 15 15
19 20 20 19 19 18 18 18 18 18 18 18 18 18 17 17 17 17 17 17 17 17 17 16 16 16 16 16 16 16 17 17 17 17 17 17 17 17 16 16 17 17 17 17 18 18 17 18 18 18 18 18 18 18 18 17 17 18 18 18 18 18 18 19 19 19 19 19 18 18 18 18 18 18 18 18 18 17 17 17 17 16 16 15 15
20 21 20 20 19 19 18 18 18 18 18 18 18 17 17 17 17 17 17 17 17 17 17 17 16 16 16 16 16 16 16 16 17 17 17 17 17 17 17 16 17 17 17 17 17 17 17 17 17 18 18 18 18 18 17 17 17 17 17 17 18 18 18 18 18 19 19 19 19 18 18 18 18 17 17 17 17 17 17 17 17 17 16 16 16
19 19 19 19 19 19 18 18 18 18 18 18 18 17 17 17 17 17 16 17 17 16 16 16 16 16 16 16 15 16 16 16 16 16 16 16 17 17 17 17 17 17 17 17 17 17 17 17 17 17 18 18 17 17 17 17 17 17 17 17 17 17 17 18 18 18 18 18 18 18 18 18 18 17 17 17 17 17 17 17 17 17 17 17 16
18 18 18 19 19 18 18 18 18 18 18 17 17 17 17 17 17 17 17 17 17 17 16 16 16 16 16 15 15 15 15 16 16 16 16 16 16 16 16 16 17 17 17 18 18 17 17 17 17 17 17 17 17 17 17 17 16 16 16 16 16 16 17 17 17 17 17 17 17 17 18 17 17 17 18 18 17 17 17 17 17 17 17 17 16
18 18 19 19 19 19 18 18 18 18 18 18 18 18 18 18 17 17 17 17 17 17 16 16 16 16 16 15 15 15 15 16 16 16 16 16 16 16 16 16 17 17 17 17 17 17 16 16 16 17 17 17 16 16 16 16 16 15 15 15 15 15 16 16 17 17 17 17 17 17 17 17 17 17 18 18 17 17 17 17 17 17 17 16 16
18 19 19 19 19 19 19 19 18 18 18 19 19 19 19 18 18 18 17 17 16 16 16 16 16 16 16 16 15 15 15 16 16 16 16 16 16 16 16 16 16 16 16 16 16 16 16 16 16 16 17 16 16 15 15 16 16 15 14 14 14 15 15 15 16 16 16 16 16 17 17 17 17 17 17 17 17 17 17 17 17 17 17 16 16
19 19 19 19 19 19 19 19 18 18 19 19 19 19 19 18 18 18 17 17 16 16 16 16 16 16 16 16 16 16 16 16 16 16 16 16 16 16 16 16 16 16 16 16 16 16 15 15 16 16 16 16 15 15 15 15 15 15 15 14 14 14 15 14 15 15 16 16 16 16 16 16 17 17 17 17 16 16 16 16 17 17 16 16 16
19 19 20 19 19 19 19 19 18 18 19 20 19 19 18 18 18 18 17 17 16 16 16 16 16 16 17 17 16 16 16 16 16 16 16 16 16 16 16 16 16 16 15 15 15 15 15 15 15 15 16 16 15 15 15 15 16 16 15 14 13 14 15 14 14 15 15 15 16 16 16 16 16 16 16 16 16 16 16 16 16 15 15 15 15
18 19 20 20 20 19 19 19 19 19 19 20 19 19 18 18 18 17 17 17 16 16 16 16 16 17 17 17 17 17 17 17 17 17 16 16 16 16 16 16 16 16 15 15 15 15 15 15 15 15 15 15 15 14 14 14 15 16 15 15 14 15 15 14 14 15 15 15 15 15 15 15 15 16 16 16 16 16 16 15 15 15 15 15 15
18 19 19 20 20 20 19 19 19 19 20 20 19 19 19 19 18 18 17 17 16 16 16 16 16 16 17 17 17 17 17 17 17 17 17 16 17 16 16 16 16 16 16 15 15 15 14 14 14 15 15 15 15 14 14 14 15 15 16 16 16 16 15 14 14 15 14 14 15 15 15 15 15 15 15 15 15 15 15 15 15 15 15 15 15
18 18 18 19 19 19 19 19 19 19 20 20 19 19 19 19 19 18 18 17 17 16 16 16 16 16 16 16 16 16 16 17 17 17 16 16 17 16 15 15 16 16 16 16 15 15 15 15 15 15 14 14 15 15 14 14 14 15 15 16 16 16 16 15 15 15 15 15 15 15 15 15 15 15 15 15 15 15 15 15 14 14 15 15 15
18 18 18 18 18 18 18 19 19 19 19 19 19 19 19 19 18 18 17 17 17 16 16 16 16 16 16 16 16 16 16 16 16 16 16 16 16 16 16 16 16 16 16 16 16 16 15 15 15 15 14 14 15 15 14 14 14 14 14 15 15 15 16 16 15 15 15 15 14 15 15 15 15 15 15 15 15 15 15 14 14 14 15 15 15
18 18 18 18 17 17 18 19 19 19 19 19 19 19 19 19 18 18 17 17 17 16 16 16 16 16 16 16 16 16 16 16 16 16 16 16 16 16 16 16 16 16 16 16 16 16 16 16 15 15 15 15 15 15 15 14 14 14 14 14 14 15 15 15 15 15 15 15 15 14 14 15 15 14 15 15 15 15 14 14 14 15 15 15 15
17 17 17 17 17 17 18 19 19 19 19 19 19 19 19 19 18 18 17 17 17 16 16 16 16 16 16 16 16 16 16 16 16 16 16 16 16 16 16 15 15 15 15 16 16 16 16 16 15 15 15 15 15 15 15 14 14 14 14 14 14 15 15 14 14 15 15 14 14 13 13 14 14 13 14 14 14 14 14 14 14 14 14 14 14
17 17 17 17 17 18 18 19 18 18 18 18 18 19 19 19 19 18 18 17 17 17 16 16 15 15 15 15 15 16 16 16 16 16 16 16 16 16 16 15 15 15 15 15 15 15 15 15 15 15 15 15 15 15 15 14 14 14 14 14 15 15 15 15 14 15 15 14 14 13 12 13 13 13 13 13 14 14 14 14 14 14 14 14 14
Height
772 773 776 778 780 781 783 784 787 788 790 792 793 795 795 795 796 796 796 796 796 797 797 798 798 799 801 802 804 805 806 807 808 808 809 810 812 813 813 814 815 816 817 818 819 820 821 822 823 823 824 824 825 825 825 825 826 826 826 826 826 826 826 827 827 827 827 827 827 827 828 828 828 829 829 829 829 830 830 830 829 829 829 829 829
772 775 776 778 780 781 783 784 786 788 790 792 794 795 796 796 797 797 797 798 798 798 799 799 800 801 802 804 805 807 808 808 809 809 810 811 813 814 815 816 816 817 818 819 820 821 822 823 823 824 825 825 826 826 826 827 827 827 827 827 827 827 827 827 827 827 828 828 828 829 829 829 829 829 830 830 830 831 831 831 830 830 830 831 830
774 777 778 780 781 783 784 786 787 788 791 792 794 796 797 797 798 799 799 800 800 800 801 802 802 803 804 805 807 808 809 809 810 811 812 813 814 815 816 817 818 819 819 820 821 822 822 823 824 825 826 826 827 827 828 828 828 827 827 828 828 828 828 828 828 828 829 829 829 829 830 830 830 831 831 831 831 832 832 832 832 832 832 832 831
773 775 777 780 782 783 785 787 788 789 791 793 795 797 798 799 799 800 801 802 802 803 803 804 804 805 805 806 808 809 810 810 811 812 813 814 815 816 817 818 819 820 821 821 822 822 823 824 825 825 826 827 828 828 829 829 829 829 829 829 829 829 829 829 829 829 830 830 830 830 831 831 831 832 832 832 832 832 833 833 833 833 833 833 832
772 774 776 778 781 784 785 787 789 791 792 794 796 798 800 800 801 801 802 803 804 805 805 806 806 806 807 808 809 810 811 812 812 813 814 815 816 817 817 818 820 821 822 822 823 824 824 825 826 826 827 828 829 829 830 830 830 830 830 830 830 830 830 830 830 830 831 831 831 831 832 832 832 833 833 833 834 834 834 834 834 834 834 834 833
773 775 776 778 781 783 784 786 788 791 793 795 797 799 801 802 802 803 804 805 806 806 807 808 808 808 809 809 810 811 812 813 813 814 814 816 817 817 818 819 821 822 823 824 824 825 825 826 827 827 828 829 830 830 831 831 832 831 831 831 831 831 831 831 831 832 832 832 833 833 833 833 834 834 834 834 835 835 835 835 835 835 835 835 834
774 776 778 779 781 782 783 784 787 790 793 795 798 800 801 803 804 804 805 806 807 808 809 810 810 810 810 811 811 813 813 814 814 815 815 816 817 818 818 820 821 823 824 824 825 825 826 827 828 828 829 829 830 831 832 832 833 833 833 833 833 832 832 832 833 833 833 833 834 834 834 834 835 835 835 835 836 836 836 836 836 836 836 836 835
775 777 778 780 782 783 784 785 787 789 792 795 797 800 802 803 804 806 807 807 809 809 811 811 811 811 811 812 812 814 814 815 816 816 817 817 818 818 819 820 822 823 824 824 825 826 826 827 828 829 829 830 831 832 832 833 834 834 834 834 834 834 834 834 834 834 834 834 835 835 835 836 836 836 836 836 836 837 837 837 837 837 837 837 837
777 779 780 782 783 785 787 788 789 790 793 794 797 800 802 804 805 806 807 808 810 811 812 812 812 812 812 813 813 814 815 816 816 817 818 818 819 819 820 821 822 823 824 825 826 827 827 828 829 830 830 831 831 832 833 834 834 835 835 835 835 835 835 835 835 835 836 836 836 836 836 837 837 837 837 837 838 838 838 838 838 838 838 838 838
779 781 782 783 785 787 789 791 791 792 793 794 796 799 802 804 806 807 808 809 810 812 813 814 814 813 813 813 814 815 816 816 817 818 818 819 820 820 821 821 822 823 824 825 826 827 828 829 830 831 831 831 832 833 833 834 835 836 836 836 836 836 836 836 836 836 837 837 837 837 837 838 837 838 838 838 838 839 839 839 839 839 839 839 839
780 782 784 785 787 788 790 792 794 795 796 795 795 797 802 804 807 808 809 810 811 812 814 815 815 815 814 814 815 815 816 817 818 819 820 821 821 821 822 822 823 824 825 826 827 828 829 830 831 832 832 832 833 833 834 835 836 836 837 837 837 837 837 837 837 837 838 838 838 838 838 838 838 838 839 839 839 840 840 840 841 841 841 841 840
781 782 784 786 788 790 791 793 796 797 798 798 797 797 801 804 807 809 810 811 812 813 814 815 816 815 815 815 816 816 817 818 819 820 821 822 823 823 823 824 824 825 825 826 827 829 830 831 831 832 832 833 833 834 834 835 836 836 837 837 837 837 838 838 838 838 838 839 839 839 839 839 839 840 840 840 840 840 841 841 842 842 842 842 841
781 783 784 786 787 789 790 793 796 798 799 800 799 799 801 804 807 809 811 811 812 813 814 816 816 816 816 816 816 817 817 818 819 820 821 822 824 824 824 825 825 826 826 827 828 829 830 831 832 832 833 833 833 834 834 835 836 837 838 837 837 838 838 838 839 839 839 839 840 840 840 840 841 841 841 841 841 841 842 842 843 843 843 843 843
782 783 785 787 788 788 788 791 795 798 800 801 800 801 802 804 807 809 811 812 813 814 815 816 816 816 816 816 817 817 817 818 819 820 821 823 824 825 825 826 826 827 827 828 829 829 831 832 832 832 832 833 833 834 834 835 836 837 838 838 838 838 839 839 839 839 840 840 840 841 841 841 841 842 842 842 842 842 842 843 843 844 844 844 844
782 782 784 787 791 791 789 790 794 799 801 801 801 802 803 805 807 809 811 812 814 815 816 817 817 817 816 817 817 818 818 818 819 820 821 823 825 826 826 826 827 828 828 829 829 830 831 832 832 832 833 833 834 834 834 835 836 837 838 838 838 839 839 840 840 840 840 840 841 841 841 842 842 842 843 843 843 843 843 843 844 844 844 844 845
782 782 783 785 789 792 790 789 793 798 801 802 801 802 804 806 808 809 812 813 814 815 817 818 818 818 817 817 818 818 819 819 820 820 822 823 825 826 826 827 827 828 829 829 830 831 831 832 832 832 833 833 834 834 835 836 837 838 838 839 839 839 840 840 841 841 841 841 841 842 842 842 843 843 843 843 843 843 844 844 844 844 845 845 845
783 783 783 783 786 789 789 788 791 796 801 802 802 803 804 806 807 809 812 813 814 816 817 818 818 818 818 818 819 819 820 820 820 821 823 824 825 825 826 827 828 829 830 830 831 831 832 832 833 833 833 834 834 834 835 836 837 838 838 839 839 840 840 841 842 842 842 842 842 842 843 843 843 844 844 844 844 844 844 845 845 845 845 845 845
784 784 784 784 785 787 787 787 789 793 797 800 802 803 804 806 807 809 812 813 814 816 817 818 819 819 819 819 820 820 821 821 821 822 823 825 825 826 826 827 828 829 830 831 831 832 833 833 834 834 834 834 835 835 835 836 837 838 838 839 839 840 841 842 842 842 843 843 843 843 843 844 844 844 845 845 845 845 845 845 846 846 846 846 846
785 785 785 786 786 787 788 789 790 793 795 798 801 803 804 806 808 810 812 813 814 815 817 818 819 819 820 820 821 821 821 822 822 824 825 825 826 826 827 828 829 830 830 831 831 832 833 834 834 835 835 835 835 835 835 836 837 838 839 839 839 840 841 842 843 843 844 844 844 844 844 844 845 845 845 845 846 846 846 846 846 847 847 847 847
786 786 787 788 788 789 790 792 794 796 798 800 801 803 805 806 808 810 812 813 814 816 817 818 819 819 820 821 821 822 822 823 824 825 826 826 827 827 827 828 829 830 831 831 832 832 833 834 835 835 836 836 836 836 836 837 837 838 839 839 840 840 841 842 843 843 844 844 844 845 845 845 846 846 846 846 846 847 847 847 847 848 848 848 847
787 787 788 789 789 791 792 794 796 798 800 801 803 804 806 807 809 810 812 814 815 816 817 818 819 820 821 821 821 822 822 823 825 826 827 827 828 828 828 829 830 830 831 832 832 833 834 834 835 836 836 837 837 837 837 837 838 838 839 839 840 840 841 842 843 844 844 845 845 845 846 846 846 847 847 847 847 847 848 848 848 849 849 849 849
787 788 789 789 790 792 793 795 797 799 800 802 803 804 806 807 809 811 812 814 815 817 817 819 819 820 821 821 822 822 823 824 826 827 828 828 829 829 830 830 830 831 831 832 833 833 834 835 835 836 836 837 837 837 838 838 838 839 839 839 840 840 842 843 843 844 845 845 845 846 846 846 847 848 848 848 848 848 848 849 849 850 850 850 850
787 788 789 790 791 792 794 796 797 799 800 802 803 805 806 807 809 811 813 814 815 817 817 819 819 820 821 822 822 823 824 826 827 828 828 829 830 830 831 831 831 832 832 833 833 834 835 835 836 836 837 837 837 838 838 838 839 839 839 840 840 840 842 843 844 845 845 846 846 846 846 847 847 848 848 848 849 849 849 849 850 850 851 851 851
786 787 789 791 792 793 795 797 798 800 801 803 804 805 807 808 810 811 813 814 815 816 817 818 819 820 821 822 823 824 825 826 827 828 829 830 830 831 831 832 832 833 833 834 834 834 835 835 836 836 837 837 838 838 839 839 839 839 840 840 840 841 842 843 844 845 846 846 846 846 847 847 848 848 848 849 849 849 850 850 850 851 851 852 852
786 788 789 791 793 795 796 798 799 801 802 803 805 806 807 809 811 812 813 814 815 816 817 819 819 820 821 822 823 825 826 827 828 828 829 830 831 831 832 833 833 833 834 834 834 834 835 836 836 837 837 838 838 839 839 839 839 840 840 840 841 841 842 844 845 846 846 846 847 847 847 847 848 848 849 849 850 850 850 850 851 851 851 852 852
787 788 790 792 794 796 797 799 800 801 803 804 806 807 808 810 811 812 813 814 816 817 818 819 820 820 821 822 824 825 826 827 828 828 829 830 831 832 832 833 833 834 834 834 835 835 836 836 837 838 838 838 838 839 839 839 840 840 840 841 841 842 843 844 845 846 846 847 847 847 847 848 848 849 849 850 850 850 851 851 851 851 851 852 852
788 790 792 794 795 797 798 799 801 803 804 805 807 808 809 810 811 813 814 815 816 817 818 819 820 821 822 823 824 825 826 827 827 828 829 830 831 831 832 833 833 834 834 835 835 836 836 837 838 838 838 839 839 839 840 840 840 840 841 841 842 842 843 844 845 846 846 847 848 848 848 848 849 849 850 850 851 851 852 852 851 851 851 852 853
790 792 794 796 797 798 799 801 802 804 805 806 807 808 809 811 812 813 814 815 816 816 817 818 819 821 822 823 824 825 825 826 827 828 829 830 831 832 832 832 833 834 834 835 835 836 836 837 838 838 839 839 839 839 840 840 840 841 841 842 842 843 843 844 845 846 846 847 848 848 848 848 849 849 850 851 851 851 852 852 852 852 852 852 853
791 794 796 798 799 800 801 802 803 804 806 807 808 809 810 811 812 813 814 815 815 816 817 818 819 821 822 823 823 824 824 825 826 827 829 830 831 831 832 832 833 834 834 834 835 835 836 837 838 838 839 839 839 839 840 840 840 841 841 842 842 843 843 844 845 846 846 847 848 848 849 849 849 850 850 851 851 852 852 853 853 853 853 853 853
790 793 795 797 799 801 802 802 803 805 806 807 808 809 810 811 812 813 813 814 814 815 817 818 819 820 821 822 823 824 824 824 826 827 828 829 830 831 832 833 833 834 834 834 834 835 836 837 837 838 838 839 839 839 840 840 841 841 842 842 842 843 844 844 845 846 846 847 848 849 849 849 849 850 850 851 852 852 852 853 853 853 853 853 853
790 791 794 797 799 801 802 803 804 805 806 807 808 809 810 811 811 812 813 813 814 815 817 818 819 820 820 821 823 823 824 825 826 828 828 829 830 831 832 833 833 834 834 834 834 835 835 836 837 837 838 838 839 839 840 840 841 841 842 842 843 843 844 844 845 846 847 847 848 849 849 849 850 850 851 851 852 852 853 853 853 853 854 854 854
790 791 793 796 798 800 802 803 804 805 806 807 808 809 810 810 811 812 813 813 814 815 817 818 818 819 819 821 823 824 824 825 827 828 828 828 829 830 831 832 833 834 834 834 834 834 835 836 836 837 837 838 838 839 839 840 841 841 842 842 843 843 844 844 845 846 847 847 848 849 849 850 850 850 851 851 852 853 853 853 853 853 854 854 854
791 792 793 795 798 800 802 803 804 805 806 807 808 809 810 810 811 812 813 813 814 815 816 817 818 818 819 821 823 823 824 825 826 825 825 824 826 828 831 832 833 833 834 834 834 834 834 835 835 836 836 837 838 839 839 840 841 841 842 842 843 843 844 844 845 845 846 847 848 849 849 850 850 850 851 851 852 852 853 853 854 854 854 854 854
790 792 792 794 798 801 802 803 804 805 806 807 808 809 810 810 811 812 813 813 814 815 816 817 817 818 819 821 822 822 822 824 824 823 822 822 824 826 829 831 832 833 833 833 834 834 834 834 834 835 836 836 837 838 839 840 840 841 842 842 843 843 844 844 844 845 846 847 848 848 849 849 850 850 851 851 851 852 853 853 854 854 854 855 855
790 792 793 794 797 800 801 802 803 805 806 807 808 809 810 810 811 812 813 813 814 814 815 817 817 818 818 820 821 821 821 822 822 822 822 823 824 825 826 829 831 832 833 833 833 833 834 834 834 834 835 835 837 838 839 839 840 841 841 842 842 843 843 844 844 845 846 847 847 848 849 849 850 850 850 851 851 852 852 853 853 854 855 855 855
790 793 794 795 797 799 800 802 803 804 806 807 808 809 810 810 811 812 813 814 814 814 815 816 817 818 818 819 819 819 820 820 821 821 822 823 824 825 827 828 829 830 831 832 833 833 833 833 834 834 834 835 836 837 838 839 839 840 841 841 842 842 843 843 844 844 845 846 847 847 848 849 849 850 850 851 851 851 852 852 853 853 854 855 855
788 790 792 794 796 798 800 802 803 804 805 807 808 809 810 810 811 812 813 814 815 815 816 816 816 817 817 818 818 819 819 819 820 821 822 823 824 824 826 827 827 827 829 831 832 832 833 833 833 834 834 834 835 835 837 838 839 839 840 841 842 842 843 843 844 844 845 845 846 846 847 848 848 849 849 850 851 851 852 852 852 853 853 854 855
787 787 789 791 793 796 800 801 803 804 805 807 808 809 810 810 811 812 813 814 815 815 816 816 816 816 817 817 818 819 819 819 820 821 822 823 823 824 825 827 827 827 827 829 831 832 832 833 833 833 833 834 834 835 836 837 838 839 840 841 842 843 843 843 844 844 845 845 845 846 846 847 848 849 849 850 850 850 851 851 852 852 853 853 854
785 786 789 792 793 796 799 801 803 804 805 807 808 809 809 810 810 811 813 814 814 815 816 816 817 817 817 817 818 819 819 819 820 820 822 823 823 824 825 826 827 827 827 828 830 831 831 832 832 833 833 833 834 835 835 836 838 839 840 842 842 843 843 844 844 844 845 845 845 845 846 846 847 848 849 849 850 850 850 851 851 851 852 853 853
785 787 790 792 793 796 798 800 802 803 805 806 807 808 808 809 810 811 812 813 814 815 816 816 816 816 817 817 818 819 819 819 820 820 821 822 823 824 825 826 827 827 827 827 829 830 830 831 831 832 833 833 834 835 836 836 838 840 842 843 843 844 844 844 844 844 845 845 845 845 846 846 846 847 848 848 849 850 850 850 850 851 852 852 853
786 788 790 792 793 795 797 799 801 802 804 805 806 806 807 808 809 810 811 813 814 815 815 816 816 816 817 818 818 819 819 819 820 821 821 823 824 825 825 826 827 827 826 827 828 829 830 830 831 831 832 834 835 836 837 837 838 841 843 844 844 845 844 844 845 845 845 845 845 846 846 846 846 847 847 847 849 851 850 850 850 850 851 851 852
786 787 789 791 793 795 796 798 800 802 803 804 805 805 806 807 808 810 812 813 814 814 815 815 816 817 817 818 819 819 820 820 821 821 822 823 824 825 825 826 826 826 826 826 828 829 829 830 830 831 831 833 835 837 837 837 838 840 844 845 846 845 845 845 845 845 845 845 845 846 846 846 847 847 847 847 849 851 850 849 849 849 850 850 851
785 786 788 790 792 794 795 797 799 801 802 803 804 804 806 807 809 811 812 813 814 814 815 815 816 817 818 819 820 820 821 821 822 822 823 824 824 825 826 826 826 825 826 826 827 828 829 830 830 830 831 832 835 837 838 839 839 840 843 845 846 846 846 846 845 845 845 845 846 846 846 847 847 847 848 848 849 849 849 849 848 848 849 850 850
784 786 787 789 790 792 794 796 798 799 800 801 803 804 805 807 809 811 812 813 814 814 815 816 817 817 818 819 820 821 822 822 823 823 824 825 825 826 826 826 826 825 826 827 827 828 829 830 830 830 831 832 836 838 839 839 839 839 841 844 845 847 847 846 846 846 846 846 846 846 846 847 847 848 848 848 849 849 849 849 849 849 850 850 850
784 785 786 787 789 791 793 795 796 798 799 800 802 804 805 807 809 811 812 813 814 815 815 816 817 818 818 819 820 821 822 823 824 824 824 825 826 826 826 826 826 826 826 827 827 828 829 830 830 831 832 833 835 837 839 839 839 838 839 841 844 846 847 846 846 846 846 846 846 846 847 847 848 848 848 849 849 849 850 850 850 850 850 850 850
783 784 786 787 789 791 792 794 795 797 798 800 802 804 805 807 809 810 812 813 814 815 816 816 817 818 818 819 820 821 822 823 824 825 825 826 826 826 826 827 827 827 827 827 827 828 829 830 831 832 832 833 834 836 838 838 838 838 838 838 840 841 843 844 845 846 847 847 847 847 848 848 849 849 849 849 849 850 850 850 851 851 851 850 850
784 785 786 788 789 790 792 794 795 797 799 800 802 804 805 807 809 811 812 813 815 815 816 817 817 818 819 819 820 821 822 824 825 826 826 827 827 827 827 827 828 828 827 827 827 828 829 830 831 832 832 833 833 834 836 837 837 837 838 838 838 839 840 842 844 845 847 848 848 848 849 849 849 849 849 849 850 850 850 851 851 851 851 850 849
785 786 787 788 789 791 792 794 796 797 799 801 803 804 805 807 809 811 813 815 816 816 817 817 818 819 819 820 821 822 823 824 825 827 827 828 828 828 828 828 828 829 828 828 828 829 829 830 831 831 832 832 832 833 835 836 836 837 838 838 839 839 840 841 842 843 844 847 849 849 850 850 850 850 850 850 850 850 850 851 851 851 850 850 849
785 786 787 789 791 792 793 794 795 796 798 801 803 805 806 808 810 812 814 816 817 818 818 818 819 820 821 822 822 823 824 825 826 827 828 829 829 829 829 829 830 830 830 830 829 829 830 830 831 831 831 832 832 833 833 834 836 837 838 839 839 840 840 841 842 842 843 846 849 850 850 850 850 851 851 851 851 851 851 851 851 851 851 850 849
786 787 788 790 791 792 792 793 794 796 799 801 803 805 807 809 811 813 814 816 818 818 819 820 820 821 822 823 824 825 825 826 827 828 828 829 829 830 830 830 831 831 831 831 831 831 831 831 831 831 831 832 832 832 833 834 836 837 839 839 840 840 841 841 842 843 844 845 848 850 851 851 852 854 853 853 853 853 853 853 852 852 852 851 851
786 788 789 790 790 791 792 793 795 798 800 802 803 805 807 809 810 812 813 815 817 819 820 820 821 822 823 824 825 826 826 827 828 828 829 830 830 831 831 831 831 831 831 831 831 831 832 832 832 832 832 833 833 833 834 835 836 837 839 840 840 841 841 842 843 844 845 846 848 850 851 852 853 854 855 854 854 854 854 854 853 854 853 853 852
Wind_Speed
24 26 25 25 24 23 21 22 21 20 20 21 23 25 25 25 25 26 27 28 29 31 31 30 30 29 28 27 27 26 24 23 22 21 20 19 19 18 18 19 19 19 19 18 15 14 14 14 13 13 13 13 13 13 15 18 19 19 18 17 16 16 18 18 18 17 16 16 16 17 17 17 17 17 17 17 17 16 17 17 18 19 19 17 17
25 25 26 25 25 24 23 22 22 21 21 22 24 24 26 26 24 25 27 28 29 30 30 29 29 28 27 26 26 25 24 23 21 20 20 19 19 19 19 19 19 19 19 18 16 15 15 14 13 13 13 13 13 14 14 17 18 17 17 16 17 18 17 17 18 17 16 17 16 17 17 17 16 17 17 17 16 16 16 16 18 20 19 17 17
24 24 25 25 25 24 22 22 22 22 23 23 23 24 26 27 25 24 26 28 29 29 29 29 29 29 28 27 26 25 23 22 20 20 19 19 18 18 19 19 19 19 18 17 16 15 14 14 14 13 13 13 14 14 14 16 16 16 17 17 18 18 17 17 17 16 17 17 16 17 17 16 16 16 16 16 16 15 15 15 17 18 16 16 16
25 25 25 26 25 25 23 22 22 22 23 23 23 24 25 26 26 24 25 26 27 28 28 28 28 28 27 26 25 23 22 21 20 19 19 18 18 17 18 18 18 18 17 17 15 15 14 13 13 13 13 14 14 14 14 15 16 16 18 18 17 17 16 16 16 16 16 16 16 18 17 17 17 16 16 16 16 15 16 15 16 16 16 16 16
28 26 26 26 25 25 24 23 22 21 22 23 23 23 23 24 25 24 24 24 25 26 25 26 26 25 25 24 23 22 21 20 19 19 18 18 17 17 17 17 17 17 17 16 15 14 14 13 14 14 13 14 14 14 15 16 17 17 18 17 16 16 16 16 16 16 16 16 17 18 17 17 17 16 16 16 16 16 16 15 15 15 16 16 16
27 26 26 26 27 26 25 25 23 22 22 23 23 23 23 23 23 23 23 23 23 24 24 24 24 23 23 22 22 21 20 19 19 19 18 17 17 17 18 17 17 17 17 15 15 14 14 14 14 14 13 14 14 14 15 16 17 18 17 17 16 16 16 16 17 17 17 17 17 17 17 17 17 15 15 15 15 15 15 15 15 14 15 15 16
27 26 25 25 27 28 27 26 24 23 22 22 23 22 22 21 22 22 22 23 22 23 23 23 23 22 21 21 21 20 19 18 18 18 17 17 17 17 17 17 16 16 16 15 15 14 15 15 14 14 14 14 14 14 15 16 16 16 15 15 15 14 15 14 15 16 16 17 16 18 18 17 15 14 14 14 14 15 15 14 15 14 14 15 15
26 25 24 24 25 26 26 26 25 25 23 23 22 21 21 21 21 21 21 21 21 21 21 21 21 21 20 20 20 19 18 17 17 18 18 17 17 17 17 16 15 15 15 15 14 13 15 16 14 13 14 14 14 14 15 15 15 14 13 12 12 12 13 13 13 15 15 15 16 18 18 15 14 14 13 13 14 14 14 14 14 14 14 14 14
25 24 23 23 23 24 24 25 25 25 24 23 22 20 20 20 20 19 19 19 19 19 19 19 19 20 19 19 19 18 17 17 17 17 17 17 18 18 17 16 14 14 15 15 14 13 13 15 14 13 13 14 14 14 14 13 13 13 11 9 9 9 10 11 11 12 13 15 15 16 15 14 14 13 12 12 13 13 13 13 13 13 13 14 14
23 22 22 22 22 22 23 23 24 24 24 23 22 20 19 19 19 18 18 18 18 18 18 17 18 18 18 18 17 17 16 16 16 16 16 16 17 17 16 15 13 13 14 15 15 14 12 12 12 12 12 13 14 13 13 13 12 12 10 8 8 7 7 8 8 9 11 13 14 14 14 12 11 12 12 12 13 12 13 13 13 14 13 14 14
20 21 21 21 21 21 21 21 22 23 22 23 23 22 19 18 18 17 17 17 18 17 16 16 16 16 16 16 15 16 15 15 15 14 14 14 15 16 15 13 12 13 13 13 13 14 12 11 11 12 11 12 12 12 12 12 11 10 10 8 7 7 6 7 7 7 9 11 12 13 11 9 10 11 13 12 13 13 12 13 12 13 13 13 13
19 20 22 21 20 20 20 19 20 21 21 21 22 22 20 18 17 16 16 16 16 16 16 16 15 15 15 15 14 15 14 14 14 13 13 13 14 14 14 12 12 12 12 11 11 11 10 10 11 12 12 12 11 10 10 10 9 8 8 6 4 5 6 7 7 7 8 9 11 11 10 9 11 11 13 13 12 13 12 13 12 13 12 12 13
19 21 22 22 21 21 20 18 18 19 20 20 20 21 20 18 17 15 15 14 14 14 15 15 15 15 15 14 14 14 14 13 13 13 12 12 13 13 12 11 11 10 10 9 9 9 7 9 10 11 12 11 10 10 9 9 8 7 7 5 3 4 6 7 8 8 8 8 9 10 10 10 10 10 12 13 13 12 11 12 12 12 11 10 12
22 22 23 22 21 22 22 20 18 17 20 20 20 20 19 18 16 15 14 13 13 13 13 13 14 15 15 15 14 14 13 13 12 12 12 12 12 12 11 10 9 8 8 8 7 6 6 9 11 11 11 10 10 9 8 8 7 6 7 5 3 4 6 9 10 9 8 8 9 9 9 9 10 10 11 12 12 12 11 12 11 10 10 10 11
24 25 24 22 20 20 20 20 17 15 17 20 20 19 18 18 17 15 13 12 12 13 13 13 13 14 14 14 14 13 13 13 12 12 12 12 12 11 10 9 8 7 7 6 5 4 6 10 11 10 10 10 9 8 7 7 6 6 7 5 4 6 8 11 11 9 8 8 8 8 8 8 9 11 11 11 11 11 11 12 11 10 11 10 10
25 26 25 24 21 19 20 20 18 15 16 18 19 19 19 18 17 15 13 12 11 12 12 12 13 13 13 13 13 13 12 12 12 12 12 12 12 11 10 9 8 7 6 5 4 5 8 11 11 10 10 9 9 9 8 7 7 6 7 5 6 9 11 12 11 9 8 7 7 7 7 8 9 10 10 10 11 11 11 11 11 11 10 10 10
25 25 25 25 24 23 22 21 20 18 17 18 19 20 20 19 17 15 13 12 11 12 12 12 12 13 13 13 12 12 11 11 11 11 11 10 10 10 10 10 9 8 7 6 6 7 9 11 10 10 10 10 9 9 9 8 8 7 7 6 7 12 13 12 10 9 8 7 7 7 7 9 9 9 10 10 10 10 10 10 10 10 10 9 10
24 24 25 26 26 24 23 23 24 23 22 21 20 21 20 19 17 16 14 13 12 12 12 12 12 13 13 13 12 12 11 11 10 10 10 9 9 9 10 10 10 9 8 6 7 8 9 10 10 9 9 10 10 9 9 9 9 8 8 7 8 12 13 11 10 9 7 7 7 7 7 9 9 9 9 9 9 9 10 10 9 10 9 9 10
24 24 25 26 25 24 23 23 24 24 24 23 22 22 21 20 18 17 15 14 14 13 13 13 13 13 13 13 12 11 11 10 10 10 10 9 9 9 9 10 10 9 8 7 7 7 9 9 9 7 7 8 9 10 10 9 9 8 7 7 6 11 13 12 10 8 7 6 6 6 7 8 8 8 9 9 9 9 9 9 9 9 9 9 9
23 24 24 23 22 22 22 20 20 20 20 22 21 21 20 19 19 17 16 15 14 14 14 14 13 12 12 12 11 11 11 10 10 9 9 9 9 9 9 9 9 9 8 7 7 7 8 8 8 6 5 6 8 8 9 9 9 8 7 6 6 10 13 12 10 8 7 6 6 6 6 7 7 8 8 9 9 9 9 9 8 8 8 8 8
21 22 22 21 21 20 20 19 18 18 19 19 20 20 19 18 18 17 15 15 14 14 14 14 13 12 11 11 11 11 10 10 9 9 9 9 8 9 9 8 8 8 7 7 7 6 7 7 7 6 5 6 7 7 7 8 8 7 6 6 7 10 13 12 10 8 7 6 5 5 5 6 6 7 8 8 9 9 9 9 8 7 7 7 7
19 20 20 21 21 20 19 19 19 19 19 19 20 21 19 19 18 16 16 15 14 13 13 13 12 11 11 10 10 10 10 9 9 8 8 8 8 8 8 8 7 7 6 6 6 6 6 6 6 6 5 5 6 6 6 7 7 7 6 6 8 11 12 12 10 8 6 5 4 4 5 5 6 7 7 7 8 8 8 9 8 6 6 6 7
19 20 21 21 21 21 20 20 20 20 20 19 20 20 19 19 18 17 16 16 14 13 14 13 12 11 11 9 9 8 8 8 8 7 7 8 7 7 7 6 6 6 5 4 4 5 5 6 6 5 5 5 4 5 6 6 6 7 6 7 9 11 12 12 10 8 5 4 3 3 3 4 5 6 7 7 7 7 7 8 8 6 5 5 6
22 21 22 22 21 22 20 20 20 20 20 19 19 19 19 19 18 18 17 16 15 14 14 12 11 10 9 8 7 7 7 7 7 7 6 7 7 6 5 5 5 5 4 3 3 3 5 6 5 5 4 4 4 4 5 6 6 7 6 7 8 11 12 11 9 7 5 3 2 2 3 4 5 6 7 7 7 6 7 7 7 6 5 4 4
23 22 22 22 21 20 20 20 20 20 19 18 19 19 19 18 18 17 16 16 15 14 14 12 11 10 8 8 7 7 8 7 6 6 6 5 6 5 4 4 4 3 2 2 2 2 3 5 5 4 3 3 3 3 5 6 6 7 6 7 8 10 11 10 9 7 5 3 2 2 2 3 4 5 6 6 6 6 6 6 7 7 6 4 3
22 22 22 22 21 20 20 20 18 18 19 19 19 19 18 19 18 17 17 16 15 14 14 12 11 10 9 8 7 8 8 8 6 6 6 5 5 5 4 3 3 2 1 1 1 1 1 2 3 2 1 2 4 4 5 5 6 7 7 7 8 8 9 9 8 7 6 4 3 2 2 2 3 5 5 6 6 6 6 6 6 6 6 6 3
20 20 21 22 21 21 20 18 17 18 19 19 20 19 18 19 19 18 17 16 15 15 14 13 11 10 9 8 8 8 8 8 7 5 5 4 4 4 3 2 2 1 1 1 1 2 2 2 2 2 1 1 4 4 5 5 5 6 6 6 6 6 7 8 7 7 6 5 4 2 2 2 2 3 4 5 6 6 6 5 5 5 5 6 4
18 17 18 18 18 18 18 17 17 19 19 19 19 19 18 19 18 18 18 17 16 15 13 12 10 10 9 9 9 8 8 7 7 5 4 3 3 3 3 3 2 2 2 2 2 2 3 3 4 3 2 1 2 3 4 4 4 5 6 5 4 5 5 6 7 7 6 5 4 3 2 1 1 2 3 4 5 5 6 5 5 4 4 5 6
15 14 14 13 14 15 15 15 17 19 19 18 19 19 19 19 19 19 18 17 16 14 13 12 11 10 9 9 9 9 8 7 7 5 4 3 3 4 3 3 2 3 3 3 3 2 3 4 5 4 3 1 1 1 2 3 4 4 5 5 3 4 4 5 6 7 7 6 4 3 2 1 1 1 2 2 3 4 5 5 5 4 4 4 6
14 13 13 13 14 14 14 15 17 18 19 19 19 19 18 19 19 18 17 16 15 14 13 12 11 10 10 10 10 9 9 9 7 6 4 4 4 4 4 3 3 3 4 3 3 2 3 4 4 5 4 1 1 1 1 2 3 3 4 4 4 4 4 4 5 6 7 6 4 3 2 1 1 1 1 1 2 3 3 5 6 5 5 5 5
15 14 13 14 16 15 15 16 18 19 19 19 19 18 17 18 18 16 16 15 14 14 13 12 11 11 11 12 11 10 10 10 8 6 5 4 5 5 5 4 4 4 4 3 3 3 3 3 4 4 4 2 1 1 2 2 2 3 2 2 3 4 3 3 4 6 6 5 5 4 2 1 1 2 2 1 1 2 2 3 4 5 5 5 5
15 16 14 15 17 16 16 18 19 20 20 19 18 18 17 17 17 16 15 14 13 13 13 13 12 12 12 12 11 10 10 10 9 7 5 5 5 6 6 5 5 5 5 5 4 4 3 3 3 4 4 2 2 2 2 3 2 2 2 1 1 2 3 3 4 6 6 5 5 4 3 1 1 2 2 3 2 2 3 3 3 4 5 5 5
13 15 15 16 18 16 16 18 20 20 19 18 18 17 16 16 16 15 14 14 13 12 13 13 12 11 12 12 10 10 11 10 9 9 9 8 6 6 7 6 6 7 7 6 5 5 4 3 3 3 3 2 2 2 2 3 3 2 2 1 0 1 4 5 5 6 6 5 5 4 3 2 1 1 2 3 3 2 4 4 3 3 3 4 5
13 15 16 16 19 17 15 17 19 19 18 17 17 16 15 15 15 14 14 13 13 13 12 11 11 11 12 12 11 11 12 11 10 11 12 11 8 5 6 6 7 7 6 6 5 5 5 4 3 3 2 1 3 3 3 3 3 2 1 1 0 2 5 6 5 5 6 6 5 4 4 3 2 1 2 3 3 3 4 5 4 3 3 3 4
14 15 15 16 19 18 17 18 18 17 16 17 17 16 15 14 14 13 13 11 12 12 11 10 10 9 10 10 9 9 10 10 10 10 10 10 8 5 7 7 7 7 6 5 5 5 5 5 5 4 2 2 3 5 4 4 3 3 3 2 3 4 6 6 6 6 7 7 7 7 6 4 4 3 2 3 3 3 3 4 5 5 5 4 3
15 14 14 17 19 19 17 17 18 17 16 16 16 15 14 13 12 11 10 9 10 11 9 8 8 7 7 7 7 7 7 7 9 9 9 8 7 6 8 7 7 6 5 5 5 6 6 6 6 5 4 3 4 6 6 6 6 7 6 6 6 6 7 7 6 6 7 9 9 10 9 7 7 6 5 4 4 5 4 4 5 6 7 6 4
17 16 17 19 20 20 17 17 18 17 16 17 16 14 12 10 10 9 8 8 8 9 8 7 6 6 6 5 5 5 5 5 7 8 8 8 8 8 9 8 7 6 5 5 5 7 7 7 7 5 5 5 5 7 8 9 10 9 9 9 8 8 8 8 7 6 6 7 9 11 11 10 9 8 7 6 5 6 6 6 6 6 7 8 7
19 20 21 22 23 22 20 18 18 16 16 16 15 12 10 9 8 8 8 7 8 8 8 7 6 6 6 5 4 5 5 5 5 7 8 8 8 9 9 8 7 6 5 5 5 7 7 7 7 5 5 5 6 9 11 12 12 12 11 10 9 8 7 7 6 5 4 5 6 9 11 12 11 10 9 8 7 7 7 7 7 7 8 9 8
20 20 21 22 22 21 19 18 17 16 15 15 14 12 10 9 8 8 8 8 7 6 6 5 4 4 5 5 5 4 5 5 4 5 6 7 8 9 9 8 7 7 6 6 6 7 7 7 6 4 5 6 7 10 13 14 13 12 11 10 9 8 7 6 5 4 3 3 3 5 8 10 10 9 9 9 10 10 9 9 9 9 9 10 10
17 17 18 19 19 19 18 18 17 16 16 16 14 12 10 9 9 9 8 8 6 4 3 2 1 1 2 3 3 3 4 4 3 3 4 5 6 8 9 9 8 7 7 7 7 7 7 7 7 5 6 8 9 12 14 15 14 11 10 9 8 7 7 6 5 4 3 2 2 2 4 6 7 8 8 9 10 11 11 10 10 10 11 12 12
15 16 18 19 19 19 19 18 18 17 18 17 14 12 11 10 9 9 9 7 5 4 4 4 4 4 2 1 0 1 1 2 2 2 3 4 5 6 7 8 8 8 7 7 6 7 7 7 8 7 9 10 11 12 14 15 13 10 9 8 7 6 6 5 4 4 4 3 2 2 3 4 5 7 9 9 10 11 10 9 8 9 10 12 13
17 16 18 19 19 20 19 19 19 19 18 17 15 12 11 11 10 9 9 7 7 7 7 8 8 7 6 4 3 2 2 2 2 3 3 4 4 5 7 8 8 8 7 7 7 7 7 8 9 10 11 12 10 10 13 11 8 8 9 6 5 5 6 5 3 3 3 3 3 3 2 2 2 4 6 7 8 8 6 5 5 7 8 9 11
18 17 18 19 20 20 20 20 20 19 18 16 14 12 11 11 9 9 9 9 9 9 9 10 10 10 9 8 6 5 4 4 4 5 5 5 4 4 5 5 6 6 6 7 8 8 8 9 11 11 12 11 8 8 9 7 6 9 10 4 1 2 3 4 5 5 3 3 3 3 2 1 1 1 2 3 4 3 3 3 4 6 7 8 10
17 18 19 20 20 21 21 21 21 20 18 16 14 13 13 12 10 10 10 9 10 9 9 10 9 9 9 8 7 6 5 4 3 4 5 5 5 4 3 3 4 5 5 6 8 9 10 11 11 11 10 9 8 6 5 6 8 9 6 3 2 2 1 1 3 5 5 4 4 3 2 2 1 1 1 1 2 3 3 3 4 5 7 9 11
18 19 21 21 22 22 22 22 22 20 18 16 15 15 14 13 12 11 10 9 9 9 9 9 8 7 7 5 4 3 4 4 2 3 5 5 4 3 1 2 3 4 5 5 6 8 10 11 12 11 9 9 9 7 5 5 9 10 7 4 2 2 1 2 2 4 4 5 4 4 4 3 2 1 1 1 2 2 2 3 4 5 7 9 10
19 20 21 22 23 24 24 23 22 21 19 17 16 16 15 14 12 12 11 10 10 8 8 8 7 5 4 3 2 2 3 4 3 3 4 4 2 1 1 2 3 4 5 5 5 7 8 8 9 9 8 9 10 9 6 6 8 8 7 5 3 3 4 4 2 2 3 4 5 5 5 5 3 2 1 2 2 2 2 3 4 5 7 9 9
19 19 20 22 23 24 24 23 22 21 19 18 18 17 16 14 12 11 10 10 10 9 8 7 6 5 4 3 2 3 3 4 3 3 3 2 1 2 2 3 3 3 3 3 3 4 5 6 7 7 7 7 8 7 6 6 7 7 7 7 6 7 6 5 3 1 2 4 7 9 10 8 5 3 2 2 2 2 3 3 4 6 8 9 10
19 20 21 22 23 23 23 23 22 21 21 20 19 17 16 14 12 11 10 9 9 9 9 8 7 6 5 5 4 4 4 3 3 3 3 2 1 2 3 3 3 4 4 4 4 3 3 4 5 6 5 4 4 4 5 7 6 5 6 7 7 7 6 5 4 3 3 2 4 9 13 14 12 11 9 8 7 6 6 7 7 8 8 9 10
19 20 22 21 20 21 22 23 24 24 23 21 20 17 15 13 13 12 11 10 7 7 8 7 7 7 7 7 6 5 4 2 2 2 3 3 1 1 4 5 4 5 5 7 7 6 5 4 4 4 4 4 3 3 3 6 6 5 6 5 6 7 7 6 6 6 5 3 1 2 6 12 15 18 19 18 17 16 15 15 14 14 13 13 12
17 18 19 19 19 22 24 26 26 25 23 21 20 18 16 14 13 13 12 11 9 8 8 7 8 8 7 8 7 6 5 3 2 2 3 3 1 1 4 6 6 6 7 7 7 7 6 6 5 5 5 5 6 6 6 6 6 5 6 5 5 6 5 5 6 7 7 6 4 2 4 8 11 16 22 23 22 21 19 18 17 18 18 18 17
15 16 18 19 21 24 25 26 25 23 22 21 20 19 17 15 13 13 13 12 11 10 10 9 9 8 8 7 7 6 5 4 3 4 4 4 3 3 4 5 5 6 6 6 7 7 7 7 7 8 8 8 9 10 10 10 9 8 6 6 6 6 7 7 8 8 7 6 5 3 4 8 9 12 17 20 21 21 20 19 19 19 18 17 17
Wind_Direction
161 156 155 160 159 157 155 148 142 136 133 132 130 132 134 133 132 131 130 132 132 133 134 132 131 131 130 129 130 130 128 126 124 122 119 116 113 112 112 111 111 113 118 119 119 118 117 117 116 114 113 111 111 112 113 113 113 114 115 113 111 112 108 106 107 103 100 99 98 97 99 99 97 97 94 93 93 95 95 93 91 87 81 77 76
159 155 154 161 161 158 158 150 145 138 135 136 134 134 136 135 131 132 133 133 134 134 134 133 132 130 129 128 128 128 126 124 121 119 116 113 109 106 107 109 110 113 116 117 117 116 117 117 116 117 116 114 114 114 115 118 118 118 120 119 115 111 109 111 110 109 107 100 98 99 100 100 98 98 96 95 93 96 95 90 89 85 81 79 76
151 153 154 160 161 159 159 152 148 141 139 139 138 138 137 138 133 130 132 132 133 132 132 131 130 129 128 128 127 127 125 123 120 119 118 116 112 108 108 111 112 113 114 116 116 116 116 117 118 118 119 118 117 117 116 120 120 119 119 117 114 111 111 112 108 108 108 105 105 104 102 100 99 98 97 95 94 93 91 88 88 87 84 81 76
152 155 155 159 162 161 159 152 150 144 141 141 141 140 138 139 135 132 131 132 132 131 130 128 128 127 127 127 126 126 124 122 120 119 120 118 116 113 111 112 112 113 115 116 114 114 114 116 118 118 119 120 119 119 119 121 119 118 116 112 110 109 108 109 109 109 110 112 111 107 106 103 100 98 97 95 94 91 89 88 87 87 84 79 74
156 155 154 157 161 161 159 153 152 146 141 142 141 141 140 139 137 135 132 131 130 129 128 127 127 125 124 124 125 125 124 123 122 122 122 121 120 117 113 110 110 112 113 113 111 110 112 114 117 117 119 122 123 123 124 124 119 116 112 109 109 107 105 106 109 110 110 112 111 111 110 105 102 99 99 98 95 92 89 88 86 85 82 81 76
153 153 154 158 162 161 160 156 154 149 144 143 142 143 142 140 138 135 134 132 131 130 128 128 128 126 125 125 127 126 125 124 124 125 125 124 123 119 116 112 109 113 115 114 114 110 111 117 120 120 120 123 125 125 129 126 118 112 109 108 107 104 103 104 107 108 108 109 110 109 107 105 106 102 101 100 98 96 94 91 88 85 82 81 77
152 153 154 159 163 162 163 160 156 153 148 145 143 142 143 141 139 135 135 134 133 133 131 132 132 131 130 129 129 126 125 125 126 126 125 125 123 120 116 112 109 116 121 121 120 113 111 119 122 122 123 125 125 126 130 126 118 112 109 107 104 104 103 101 105 106 107 109 108 106 106 108 108 104 103 104 103 100 97 95 92 88 85 82 79
151 153 154 158 162 163 163 160 158 155 150 146 144 142 142 141 140 138 136 137 137 137 136 137 136 136 134 132 130 127 126 125 127 126 125 124 120 118 116 116 118 123 123 120 117 111 109 114 119 123 126 127 128 130 133 130 126 123 118 115 108 105 103 101 105 107 108 111 110 108 110 110 106 104 104 105 105 104 102 99 94 90 88 84 80
149 152 153 155 159 162 161 160 159 156 152 149 145 141 142 141 141 140 138 139 140 140 140 140 139 138 136 134 133 131 130 128 128 127 127 125 121 120 123 127 132 129 121 119 114 108 106 107 111 123 129 130 134 134 134 134 134 136 132 129 123 111 106 105 108 110 109 112 115 115 115 115 113 110 107 105 105 107 108 105 99 94 89 86 81
145 150 154 154 155 160 160 161 161 158 156 151 146 143 142 142 142 141 140 141 141 141 140 140 138 137 136 136 135 135 134 132 131 131 131 130 129 131 135 138 137 131 122 121 120 114 110 108 112 125 132 130 135 135 135 138 137 143 145 142 138 129 120 115 116 118 111 113 120 122 124 123 120 116 113 109 108 108 106 103 98 94 92 90 86
143 150 153 152 152 156 157 160 162 160 157 153 148 144 143 144 144 142 141 142 142 142 141 142 140 138 137 137 137 137 136 136 135 135 136 136 138 141 144 144 139 132 125 124 123 119 114 114 120 129 133 127 130 134 139 146 145 150 153 149 148 149 146 135 132 130 119 118 123 128 130 119 108 110 113 109 107 107 104 102 99 97 96 95 91
142 148 149 149 150 151 152 157 161 161 158 154 150 145 145 146 145 141 139 141 142 143 144 146 145 143 141 140 140 139 139 140 140 140 141 142 143 146 147 147 143 136 130 128 125 122 113 115 122 126 133 132 133 139 146 154 156 158 152 151 168 163 161 152 144 141 132 125 125 127 126 111 105 111 116 114 109 109 107 107 104 100 97 98 95
141 145 146 147 148 148 150 153 158 162 163 158 152 147 146 147 147 143 142 143 144 146 147 148 147 146 143 142 142 140 141 141 143 143 144 147 147 149 148 147 145 139 133 129 129 128 117 120 126 124 130 137 140 143 150 157 158 155 143 152 183 167 169 160 151 147 141 135 128 126 122 114 113 116 119 119 116 114 113 109 105 104 99 98 97
143 146 147 147 147 149 149 151 155 161 166 163 155 151 150 150 152 149 149 149 149 152 150 151 149 146 144 141 141 140 140 140 140 140 143 148 149 151 148 146 143 139 137 135 136 133 123 127 134 132 129 139 150 152 154 157 156 146 135 149 177 162 166 160 155 148 144 143 133 129 124 119 119 120 121 120 117 117 117 113 108 107 101 98 97
147 147 145 142 143 146 145 147 152 156 165 166 159 157 156 156 158 156 155 154 155 157 154 154 151 146 143 140 139 139 138 139 138 137 138 143 150 152 149 146 146 146 145 143 140 130 128 131 136 136 131 137 150 157 158 157 153 140 128 141 160 147 154 154 153 147 144 146 136 130 125 123 125 127 127 126 124 121 120 118 114 112 106 103 101
148 146 143 142 145 149 147 146 151 157 166 169 166 164 164 163 161 159 159 161 159 159 159 157 152 147 144 139 138 138 138 138 136 134 135 140 148 151 149 147 147 150 146 137 126 123 126 131 133 128 123 129 139 149 155 154 147 133 120 134 148 142 147 149 148 146 144 143 133 127 123 124 127 129 130 131 128 124 123 124 120 116 111 108 105
147 149 150 151 153 155 153 150 154 162 171 175 173 172 171 168 166 164 166 169 163 161 163 160 155 149 144 141 140 139 139 138 136 134 136 140 142 143 144 144 145 143 136 122 114 117 122 128 128 119 112 115 126 140 146 146 142 127 115 131 151 148 149 149 147 145 144 142 132 126 121 124 130 133 133 132 130 127 127 127 123 120 115 114 111
154 158 160 158 156 157 158 158 162 168 174 178 178 178 175 172 169 169 171 172 168 166 166 164 158 152 147 144 143 142 139 137 136 138 141 141 137 133 133 136 139 138 133 122 112 114 121 129 128 118 107 105 113 128 138 141 141 128 112 127 157 159 155 154 153 148 146 143 134 130 124 129 137 140 140 137 136 132 130 130 128 126 120 117 114
162 164 162 160 158 159 162 163 166 168 172 176 177 178 174 173 171 171 174 174 171 170 170 168 162 156 151 148 146 144 139 136 137 142 145 142 136 130 127 130 136 139 137 128 119 117 121 132 137 128 111 104 109 118 130 136 138 130 112 119 154 167 163 160 159 155 153 146 135 133 131 135 142 145 145 141 139 137 133 132 130 128 124 120 118
165 165 162 163 161 159 162 163 164 166 171 174 174 173 171 172 173 173 176 175 173 173 173 170 165 161 156 152 150 145 139 136 137 143 145 143 138 133 131 134 140 142 141 137 131 125 122 131 140 139 124 112 110 114 125 130 133 129 114 117 143 166 168 165 165 165 161 151 139 137 138 141 143 147 148 144 142 141 138 135 132 132 129 124 121
166 168 166 165 163 159 162 163 165 169 173 174 172 170 169 173 174 174 176 175 174 175 174 172 170 165 161 158 155 150 144 139 137 142 145 144 140 137 137 139 143 145 146 148 147 141 130 129 132 134 133 123 115 111 119 126 128 123 113 118 140 164 171 169 169 173 170 157 144 140 146 146 146 152 154 150 146 147 145 138 135 136 133 128 123
166 169 168 167 166 164 165 166 170 174 175 174 173 170 170 174 175 175 175 175 175 176 176 174 174 169 168 166 160 155 147 142 141 143 145 144 141 139 141 144 146 148 153 156 156 153 144 136 133 131 130 126 121 115 117 123 121 116 104 111 142 162 171 173 172 176 174 160 148 145 151 149 150 157 160 156 152 154 150 140 136 138 136 131 126
166 169 171 171 170 170 169 170 173 176 176 173 172 172 172 174 175 175 175 173 175 179 178 177 179 175 173 172 165 160 150 147 148 143 142 140 139 140 143 149 150 151 155 160 158 158 161 155 150 145 137 129 125 120 120 124 116 112 97 99 140 161 167 173 174 175 174 169 158 152 157 152 154 164 166 163 160 157 147 142 140 140 142 138 132
169 170 174 175 174 173 172 173 176 177 177 173 171 174 175 177 177 176 175 175 178 182 182 182 185 183 179 176 171 167 157 155 153 145 144 141 139 143 147 157 158 158 159 167 170 169 177 178 178 171 153 136 129 127 128 131 120 114 104 94 128 157 163 167 171 170 170 181 183 168 170 159 158 170 172 168 167 160 149 149 146 143 146 144 147
171 170 174 177 177 176 176 178 178 178 177 172 173 177 177 179 179 177 178 179 183 186 187 188 190 190 184 179 176 171 165 166 163 149 149 150 150 153 158 172 169 168 175 179 188 201 198 197 200 193 174 144 131 134 133 135 125 117 113 100 116 146 157 162 168 170 172 188 200 199 192 169 162 172 177 174 174 168 158 156 150 150 151 149 173
174 172 174 176 177 178 182 183 179 178 176 173 175 180 180 181 181 179 182 185 189 190 191 193 195 193 187 187 183 176 172 174 172 157 159 165 167 167 172 183 181 183 205 215 224 279 253 225 226 222 208 153 130 132 130 131 131 124 121 112 115 137 157 165 170 175 182 194 204 216 214 184 165 170 180 182 184 177 167 164 158 158 157 154 172
178 178 176 176 178 181 186 183 179 179 178 177 178 180 183 185 184 183 187 190 194 195 194 195 197 193 189 192 188 181 179 178 179 173 173 181 186 185 190 196 193 212 271 298 307 336 335 316 297 297 279 170 130 124 117 118 131 131 127 125 123 135 159 171 176 184 190 202 210 223 228 202 171 170 177 187 195 186 177 177 169 167 166 158 165
181 181 180 182 181 183 186 181 179 182 182 182 181 184 188 189 188 189 193 195 198 199 197 196 199 196 192 191 188 184 183 185 186 184 185 197 212 206 210 216 210 232 265 296 317 338 346 352 343 335 320 255 135 120 105 100 115 126 129 132 136 142 157 169 179 188 196 208 213 222 233 210 184 171 171 187 198 193 186 192 187 180 183 165 165
178 180 185 189 186 187 189 186 185 187 188 187 187 190 191 191 194 196 197 199 203 205 202 199 201 199 196 195 192 188 190 199 196 191 200 222 239 229 231 238 235 243 254 281 305 323 339 349 352 353 347 326 126 112 91 77 86 109 123 120 125 151 158 166 178 188 197 209 217 225 228 216 224 188 174 178 189 197 196 200 201 197 204 185 172
174 176 184 187 186 192 195 195 194 192 192 192 194 196 194 195 200 203 203 205 207 209 208 205 205 204 206 204 197 197 205 210 202 200 213 234 254 251 252 251 245 247 258 276 290 310 330 338 347 359 3 344 327 9 28 38 60 82 109 105 104 140 160 176 186 190 196 206 218 226 226 229 251 256 215 189 175 197 210 207 204 208 216 209 191
172 172 182 185 184 194 204 204 201 198 196 197 200 200 201 203 207 210 211 213 214 212 213 211 207 212 217 208 198 206 219 217 207 209 221 239 259 266 264 255 249 254 272 285 281 286 305 326 341 356 2 344 299 316 342 351 20 51 75 98 104 132 156 183 194 194 195 204 219 224 221 229 253 269 271 289 243 196 226 242 216 211 220 222 213
170 173 181 186 185 195 207 209 205 203 201 202 204 206 209 212 215 217 217 221 220 217 218 214 212 221 225 212 204 217 227 221 211 211 223 236 256 267 264 261 263 267 280 287 275 269 274 301 325 343 351 327 275 288 314 323 328 4 35 73 119 150 174 176 188 196 197 207 221 227 225 219 251 270 273 292 294 223 228 272 248 223 228 229 222
167 176 183 187 188 197 208 209 207 206 206 208 211 212 214 217 221 222 222 226 227 228 227 220 223 232 231 224 221 226 229 227 218 214 218 219 228 255 263 270 275 274 281 282 272 265 260 273 292 319 338 302 246 246 268 294 304 319 350 9 87 197 189 178 186 198 201 210 220 235 240 234 234 278 280 277 287 254 237 262 276 265 260 246 236
172 181 185 188 189 199 211 210 208 211 211 214 217 216 217 219 222 223 224 230 233 235 231 228 235 241 240 238 235 234 235 232 224 219 217 208 199 221 244 259 271 272 278 276 266 261 257 258 259 274 312 274 221 215 230 260 275 275 285 314 218 194 186 180 188 202 210 217 224 234 240 243 243 268 298 279 277 268 248 257 264 276 292 286 258
180 183 186 187 190 202 213 211 210 215 216 218 220 219 220 220 221 221 224 231 239 241 241 240 240 244 248 246 251 256 245 230 221 215 214 206 192 205 222 229 249 261 274 272 258 259 258 251 245 248 274 259 216 213 227 238 222 198 182 186 193 183 178 177 185 202 216 225 232 237 235 240 245 248 269 279 283 283 270 260 253 260 282 300 287
185 187 188 188 193 206 213 213 214 215 217 219 219 221 221 220 220 222 226 235 247 257 261 252 242 251 259 253 269 278 257 234 217 204 200 199 191 209 223 221 229 241 260 261 251 260 260 248 243 247 265 266 236 217 213 207 190 179 170 172 175 170 167 169 180 198 214 224 232 237 236 237 239 240 246 255 276 287 291 281 267 261 268 281 284
188 187 193 193 199 208 212 216 216 212 213 216 217 218 216 218 222 225 235 244 255 266 270 268 269 283 281 269 274 275 265 247 219 198 190 192 195 213 224 223 226 226 232 240 245 258 259 245 240 242 256 258 235 203 186 184 182 175 166 165 164 161 163 164 173 189 204 222 233 236 236 236 239 241 245 252 264 275 285 289 286 277 272 275 275
187 185 193 195 198 203 207 214 215 211 211 213 213 211 210 214 221 227 236 244 252 260 267 279 293 301 295 284 276 269 264 252 225 204 195 195 204 217 223 224 234 232 223 227 239 256 260 242 235 247 252 240 218 193 178 177 178 174 165 159 159 161 162 161 165 175 189 215 235 238 234 233 237 242 248 257 264 268 274 281 284 285 282 280 278
190 187 189 192 195 198 203 209 212 211 210 211 210 206 205 207 212 219 226 238 250 256 268 285 297 301 295 285 283 279 264 253 235 215 203 200 208 219 225 228 239 244 237 239 244 257 261 237 226 242 239 221 202 186 175 172 168 161 155 147 148 153 151 152 157 168 180 198 220 230 230 228 232 242 253 262 266 264 263 268 276 282 285 286 284
196 190 188 193 197 197 202 207 210 211 207 206 204 198 194 195 204 211 218 229 236 239 249 267 262 263 271 276 292 296 278 262 242 229 220 210 209 219 228 231 239 245 242 244 249 253 251 229 217 222 221 205 184 176 172 167 152 133 127 127 131 139 139 144 147 148 155 163 195 227 230 231 234 239 250 264 273 272 266 265 270 278 283 285 285
198 194 191 195 200 201 204 206 208 208 205 204 200 196 191 189 194 202 209 209 192 167 146 134 131 139 152 178 293 318 271 242 230 237 230 205 193 210 229 236 238 243 242 239 241 240 233 221 210 205 205 192 172 167 169 166 153 128 107 98 101 115 122 137 154 153 155 162 196 236 231 237 247 247 253 264 273 275 273 270 271 275 277 279 281
196 196 197 199 200 204 208 210 209 205 204 205 205 201 195 190 187 188 186 168 142 131 123 116 115 121 123 122 122 129 147 158 173 192 188 163 163 199 225 236 238 241 240 232 229 226 219 212 206 202 202 195 181 177 173 169 160 132 117 92 66 79 89 98 121 140 158 181 197 216 219 218 246 254 256 257 258 263 272 278 279 280 279 279 279
200 199 202 201 199 203 209 211 208 202 199 204 208 199 188 185 179 169 161 145 132 126 119 113 110 112 112 114 118 125 142 154 156 154 140 130 144 182 205 223 232 233 233 228 224 218 209 206 207 209 209 204 198 197 191 184 159 126 120 119 89 76 59 63 83 100 121 145 162 171 172 154 163 236 248 248 258 273 286 295 298 297 293 291 288
204 201 203 203 202 204 208 209 205 200 196 198 199 188 179 175 166 157 153 144 135 130 124 119 116 116 113 114 115 118 131 146 158 158 142 135 145 157 175 205 217 219 223 224 218 208 202 201 204 210 213 210 201 201 214 204 178 156 131 118 152 130 55 15 73 85 103 113 124 140 138 132 137 182 231 263 292 314 330 335 335 329 313 305 303
204 205 206 207 207 207 208 208 204 197 193 193 189 183 178 170 160 153 148 141 135 134 132 127 126 127 122 118 115 115 127 131 141 164 155 143 132 128 157 193 195 201 204 207 208 205 202 198 201 209 212 219 219 207 197 176 172 181 173 147 137 131 184 208 108 91 106 110 106 103 102 105 106 132 198 281 288 308 354 11 10 358 342 332 325
204 206 208 208 209 208 206 204 199 193 191 191 186 185 185 180 173 165 158 149 140 141 142 138 140 142 133 124 94 98 138 143 137 137 147 140 124 150 163 169 185 190 189 188 194 199 202 201 205 213 216 227 233 223 198 150 137 149 153 148 143 144 165 173 141 101 102 101 104 100 84 78 69 44 10 336 322 334 2 7 5 357 349 347 346
201 203 203 203 204 204 201 197 194 190 190 189 187 189 190 187 186 182 175 166 155 154 156 152 153 153 141 128 91 93 128 151 143 136 148 145 243 242 158 148 167 161 164 174 179 190 197 200 200 205 214 221 220 217 207 162 129 111 111 119 120 122 133 140 137 139 114 90 90 91 81 72 68 55 28 354 340 340 346 351 357 356 347 342 341
199 198 197 197 197 195 192 189 189 190 190 191 192 194 193 186 184 182 175 170 167 164 165 162 157 155 145 136 124 114 124 141 145 148 158 155 280 240 166 156 145 118 103 105 108 120 150 176 183 186 195 196 179 182 193 175 154 130 117 109 104 107 107 110 111 112 124 109 79 83 82 78 74 68 64 58 57 57 55 55 46 28 10 359 354
200 197 194 192 191 187 185 187 190 192 192 191 191 192 192 185 180 176 167 164 173 175 173 169 159 156 150 143 143 141 135 135 151 165 163 159 240 220 171 169 146 122 113 107 103 100 103 121 148 163 165 155 136 115 152 165 160 160 150 118 100 106 98 93 95 88 92 104 100 76 78 76 70 69 75 78 76 75 75 74 69 61 55 48 43
201 198 194 191 188 187 188 191 193 192 190 188 186 183 184 183 181 180 173 169 179 186 184 177 165 161 155 149 147 145 146 149 161 175 172 165 187 169 166 170 154 141 138 125 115 111 108 112 116 120 121 118 114 104 108 132 138 148 161 148 119 109 100 90 86 82 81 85 97 96 72 79 77 72 76 78 76 75 74 73 71 68 66 63 59
199 200 197 194 193 192 192 193 193 190 187 185 183 180 181 186 189 189 184 180 183 188 188 181 173 172 166 157 153 148 149 155 160 169 170 165 160 149 157 167 158 146 141 128 119 115 113 113 107 105 106 103 104 105 105 114 122 129 144 146 121 101 98 97 88 85 87 89 100 98 79 95 100 84 76 72 69 67 64 63 63 62 60 59 56